Flag for U.S.A. Weather past 2 weeks in Washington DC, District of Columbia, U.S.A.

Now
74 °F

Scattered clouds.


Feels Like: 76 °F
Forecast: 65 / 87 °F
Wind: 9 mph from South

Location: Reagan National Airport

Current Time: Aug 29, 2015 at 9:28:48 AM

Latest Report: Aug 29, 2015 at 8:52 AM


Visibility: 10 mi

Pressure: 30.22 "Hg

Humidity: 69%

Dew point: 63 °F

Location of Washington DCLocation

Historic Weather in Washington DC — Graph

°F

Washington DC temperature yesterday

Maximum temperature yesterday: 82 °F (at 1:52 PM)
Minimum temperature yesterday: 65 °F (at 4:52 AM)
Average temperature yesterday: 74 °F

Past Weeks' High & Low Weather Summary

 TemperatureHumidityPressure
High95 °F (Aug 17, 1:52 PM)94% (Aug 20, 4:52 AM)30.22 "Hg (Aug 20, 4:52 AM)
Low63 °F (Aug 27, 5:52 AM)29% (Aug 16, 3:52 PM)29.81 "Hg (Aug 24, 5:52 PM)
Average78 °F62%30.05 "Hg
* Reported Aug 14 7:52 AM — Aug 29 7:52 AM, Washington DC, Weather by CustomWeather, © 2015

Note: Actual official high and low records may vary slightly from our data, if they occured in-between our weather recording intervals... More about our weather records

Advertising

Washington DC weather history for previous 24 hours

 ConditionsComfort  
Time TempWeatherWind HumidityBarometerVisibility
7:52 AM
Sat, Aug 29
71 °FPartly sunny.7 mph76%30.22 "Hg10 mi
6:52 AM68 °FPartly cloudy.5 mph82%30.21 "Hg10 mi
5:52 AM67 °FPassing clouds.6 mph81%30.19 "Hg10 mi
4:52 AM69 °FPassing clouds.5 mph76%30.20 "Hg10 mi
2:52 AM71 °FPassing clouds.6 mph73%30.20 "Hg10 mi
1:52 AM72 °FPassing clouds.3 mph68%30.20 "Hg10 mi
12:52 AM72 °FPassing clouds.3 mph66%30.21 "Hg10 mi
11:52 PM
Fri, Aug 28
72 °FPassing clouds.3 mph68%30.20 "Hg10 mi
10:52 PM73 °FPassing clouds.5 mph66%30.20 "Hg10 mi
9:52 PM74 °FPassing clouds.5 mph62%30.19 "Hg10 mi
8:52 PM75 °FClear.5 mph60%30.18 "Hg10 mi
7:52 PM77 °FScattered clouds.9 mph60%30.15 "Hg10 mi
6:52 PM80 °FScattered clouds.13 mph54%30.14 "Hg10 mi
5:52 PM82 °FScattered clouds.3 mph44%30.14 "Hg10 mi
4:52 PM82 °FScattered clouds.6 mph44%30.14 "Hg10 mi
3:52 PM81 °FBroken clouds.5 mph45%30.15 "Hg10 mi
2:52 PM82 °FPartly sunny.7 mph44%30.17 "Hg10 mi
1:52 PM82 °FPartly sunny.5 mph44%30.19 "Hg10 mi
12:52 PM80 °FPartly sunny.No wind44%30.20 "Hg10 mi
11:52 AM78 °FScattered clouds.3 mph48%30.21 "Hg10 mi
10:52 AM77 °FPassing clouds.3 mph48%30.22 "Hg10 mi
9:52 AM75 °FPassing clouds.No wind55%30.22 "Hg10 mi
Weather by CustomWeather, © 2015

See weather overviewHow to use our weather pages